This is the latest recevied weather packets stored in our database for station/object K5NOC-12. If no packets are shown the sender has not sent any weather packets the latest 10 day(s).
| Time | Temp. | Humidity | Pressure | Rain* | Wind** | Luminosity | Snow |
|---|---|---|---|---|---|---|---|
| 1777433146 | 16.11° C | 37% | 1016.3 hPa | 0 mm | - | - | - |
| 1777432246 | 16.67° C | 34% | 1015.8 hPa | 0 mm | - | - | - |
| 1777431346 | 17.78° C | 32% | 1015.6 hPa | 0 mm | - | - | - |
| 1777430446 | 18.33° C | 30% | 1015.3 hPa | 0 mm | - | - | - |
| 1777429546 | 18.89° C | 29% | 1014.9 hPa | 0 mm | - | - | - |
| 1777428645 | 19.44° C | 28% | 1014.6 hPa | 0 mm | - | - | - |
| 1777427745 | 20° C | 28% | 1014.3 hPa | 0 mm | - | - | - |
| 1777426845 | 20.56° C | 27% | 1014.1 hPa | 0 mm | - | - | - |
| 1777425945 | 21.67° C | 26% | 1013.8 hPa | 0 mm | - | - | - |
| 1777425044 | 22.78° C | 25% | 1013.7 hPa | 0 mm | - | - | - |
| 1777424144 | 23.89° C | 24% | 1013.3 hPa | 0 mm | - | - | - |
| 1777423244 | 25° C | 22% | 1013.2 hPa | 0 mm | - | - | - |
| 1777422344 | 25.56° C | 21% | 1012.9 hPa | 0 mm | - | - | - |
| 1777421444 | 27.22° C | 18% | 1012.8 hPa | 0 mm | - | - | - |
| 1777420544 | 28.33° C | 9% | 1012.7 hPa | 0 mm | - | - | - |
| 1777419643 | 27.22° C | 13% | 1012.4 hPa | 0 mm | - | - | - |
| 1777418743 | 28.33° C | 18% | 1012.6 hPa | 0 mm | - | - | - |
| 1777417843 | 28.33° C | 9% | 1012.5 hPa | 0 mm | - | - | - |
| 1777416943 | 27.78° C | 15% | 1012.3 hPa | 0 mm | - | - | - |
| 1777416013 | 27.22° C | 17% | 1012.5 hPa | 0 mm | - | - | - |
| 1777415113 | 26.67° C | 17% | 1012.7 hPa | 0 mm | - | - | - |
| 1777414213 | 26.11° C | 20% | 1013 hPa | 0 mm | - | - | - |
| 1777413313 | 26.67° C | 20% | 1013.2 hPa | 0 mm | - | - | - |
| 1777412412 | 26.11° C | 21% | 1013.4 hPa | 0 mm | - | - | - |
| 1777411512 | 26.11° C | 25% | 1013.5 hPa | 0 mm | - | - | - |
* Rain latest hour (hover to see other rain measurements)
** Current wind speed in m/s (hover to see current wind gust speed)